User: anonymous   Login
Location: Columbia
(38.9520°N, 92.3340°W)
Time: 20:51:31
(UTC-06:00)
Language:

CZ-4B R/B - Orbit

View from above orbital plane
View from above orbital plane
View from above satellite
View from above satellite

Ground track
Ground track

The orbit data is extracted from the following two-line orbital elements,

1 29093U 06015B   17345.15504977  .00001791  00000-0  42444-4 0  9993
2 29093  97.5095 100.6339 0062773  42.1765 318.4285 15.41191169644779
Epoch (UTC): 11 December 2017 03:43:16
Eccentricity: 0.0062773
inclination: 97.5095°
perigee height: 400 km
apogee height: 485 km
right ascension of ascending node: 100.6339°
argument of perigee: 42.1765°
revolutions per day: 15.41191169
mean anomaly at epoch: 318.4285°
orbit number at epoch: 64477

The dashed part of the orbit path shows where the satellite is in the earth's shadow,  

DLR